Oscar 19 - Orbit

View from above orbital plane
View from above orbital plane
View from above satellite
View from above satellite

Ground track
Ground track

The orbit data is extracted from the following two-line orbital elements,

1 20442U 90005G   13145.00009698  .00000150  00000-0  71111-4 0  6888
2 20442 098.4388 087.4268 0011389 212.1643 209.0082 14.32385099219119
Epoch (UTC): 25 May 2013 00:00:08
Eccentricity: 0.0011389
inclination: 98.4388°
perigee height: 775 km
apogee height: 792 km
right ascension of ascending node: 87.4268°
argument of perigee: 212.1643°
revolutions per day: 14.32385099
mean anomaly at epoch: 209.0082°
orbit number at epoch: 21911

The dashed part of the orbit path shows where the satellite is in the earth's shadow,  

Developed and maintained by Chris Peat, Heavens-Above GmbH. Please read the updated FAQ before sending e-mail. Imprint. DLR